owner,sensor,date,latitude,longitude,vertical_datum,mass_concentration_of_oxygen_in_sea_water,qcFlag 
DISL,ioos:station:DISL:CATA:1,2014-03-01T00:00:00Z,30.3085,-88.1395,2.08,10.74,1111122 
DISL,ioos:station:DISL:CATA:1,2014-03-01T00:30:00Z,30.3085,-88.1395,2.098,10.65,1111122 
DISL,ioos:station:DISL:CATA:1,2014-03-01T01:00:00Z,30.3085,-88.1395,2.095,10.56,1111122 
DISL,ioos:station:DISL:CATA:1,2014-03-01T01:30:00Z,30.3085,-88.1395,2.091,10.48,1111122 
DISL,ioos:station:DISL:CATA:1,2014-03-01T02:00:00Z,30.3085,-88.1395,2.102,10.41,1111122 
DISL,ioos:station:DISL:CATA:1,2014-03-01T02:30:00Z,30.3085,-88.1395,2.103,10.39,1111122 
DISL,ioos:station:DISL:CATA:1,2014-03-01T03:00:00Z,30.3085,-88.1395,2.121,10.32,1111122 
DISL,ioos:station:DISL:CATA:1,2014-03-01T03:30:00Z,30.3085,-88.1395,2.145,10.25,1111122 
DISL,ioos:station:DISL:CATA:1,2014-03-01T04:00:00Z,30.3085,-88.1395,2.154,10.27,1111122 
DISL,ioos:station:DISL:CATA:1,2014-03-01T04:30:00Z,30.3085,-88.1395,2.164,10.25,1111122 
DISL,ioos:station:DISL:CATA:1,2014-03-01T05:00:00Z,30.3085,-88.1395,2.181,10.22,1111122 
DISL,ioos:station:DISL:CATA:1,2014-03-01T05:30:00Z,30.3085,-88.1395,2.17,10.25,1111122 
DISL,ioos:station:DISL:CATA:1,2014-03-01T06:00:00Z,30.3085,-88.1395,2.161,10.18,1111122 
DISL,ioos:station:DISL:CATA:1,2014-03-01T06:30:00Z,30.3085,-88.1395,2.158,10.13,1111122 
DISL,ioos:station:DISL:CATA:1,2014-03-01T07:00:00Z,30.3085,-88.1395,2.134,10.15,1111122 
DISL,ioos:station:DISL:CATA:1,2014-03-01T07:30:00Z,30.3085,-88.1395,2.109,10.12,1111122 
DISL,ioos:station:DISL:CATA:1,2014-03-01T08:00:00Z,30.3085,-88.1395,2.053,10.2,1111122 
DISL,ioos:station:DISL:CATA:1,2014-03-01T08:30:00Z,30.3085,-88.1395,2.027,10.28,1111122 
DISL,ioos:station:DISL:CATA:1,2014-03-01T09:00:00Z,30.3085,-88.1395,1.993,10.29,1111122 
DISL,ioos:station:DISL:CATA:1,2014-03-01T09:30:00Z,30.3085,-88.1395,1.952,10.39,1111122 
DISL,ioos:station:DISL:CATA:1,2014-03-01T10:00:00Z,30.3085,-88.1395,1.915,10.45,1111122 
DISL,ioos:station:DISL:CATA:1,2014-03-01T10:30:00Z,30.3085,-88.1395,1.898,10.45,1111122 
DISL,ioos:station:DISL:CATA:1,2014-03-01T11:00:00Z,30.3085,-88.1395,1.859,10.37,1111122 
DISL,ioos:station:DISL:CATA:1,2014-03-01T11:30:00Z,30.3085,-88.1395,1.83,10.26,1111122 
DISL,ioos:station:DISL:CATA:1,2014-03-01T12:00:00Z,30.3085,-88.1395,1.829,10.22,1111122 
DISL,ioos:station:DISL:CATA:1,2014-03-01T12:30:00Z,30.3085,-88.1395,1.831,10.17,1111122 
DISL,ioos:station:DISL:CATA:1,2014-03-01T13:00:00Z,30.3085,-88.1395,1.847,10.16,1111122 
DISL,ioos:station:DISL:CATA:1,2014-03-01T13:30:00Z,30.3085,-88.1395,1.859,10.16,1111122 
DISL,ioos:station:DISL:CATA:1,2014-03-01T14:00:00Z,30.3085,-88.1395,1.854,10.14,1111122 
DISL,ioos:station:DISL:CATA:1,2014-03-01T14:30:00Z,30.3085,-88.1395,1.834,10.14,1111122 
DISL,ioos:station:DISL:CATA:1,2014-03-01T15:00:00Z,30.3085,-88.1395,1.815,10.15,1111122 
DISL,ioos:station:DISL:CATA:1,2014-03-01T15:30:00Z,30.3085,-88.1395,1.803,10.21,1111122 
DISL,ioos:station:DISL:CATA:1,2014-03-01T16:00:00Z,30.3085,-88.1395,1.806,10.41,1111122 
DISL,ioos:station:DISL:CATA:1,2014-03-01T16:30:00Z,30.3085,-88.1395,1.831,10.68,1111122 
DISL,ioos:station:DISL:CATA:1,2014-03-01T17:00:00Z,30.3085,-88.1395,1.856,10.73,1111122 
DISL,ioos:station:DISL:CATA:1,2014-03-01T17:30:00Z,30.3085,-88.1395,1.876,10.57,1111122 
DISL,ioos:station:DISL:CATA:1,2014-03-01T18:00:00Z,30.3085,-88.1395,1.895,10.54,1111122 
DISL,ioos:station:DISL:CATA:1,2014-03-01T18:30:00Z,30.3085,-88.1395,1.904,10.47,1111122 
DISL,ioos:station:DISL:CATA:1,2014-03-01T19:00:00Z,30.3085,-88.1395,1.915,10.43,1111122 
DISL,ioos:station:DISL:CATA:1,2014-03-01T19:30:00Z,30.3085,-88.1395,1.934,10.48,1111122 
DISL,ioos:station:DISL:CATA:1,2014-03-01T20:00:00Z,30.3085,-88.1395,1.93,10.52,1111122 
DISL,ioos:station:DISL:CATA:1,2014-03-01T20:30:00Z,30.3085,-88.1395,1.921,10.54,1111122 
DISL,ioos:station:DISL:CATA:1,2014-03-01T21:00:00Z,30.3085,-88.1395,1.911,10.55,1111122 
DISL,ioos:station:DISL:CATA:1,2014-03-01T21:30:00Z,30.3085,-88.1395,1.905,10.67,1111122 
DISL,ioos:station:DISL:CATA:1,2014-03-01T22:00:00Z,30.3085,-88.1395,1.908,10.75,1111122 
DISL,ioos:station:DISL:CATA:1,2014-03-01T22:30:00Z,30.3085,-88.1395,1.909,11.0,1111122 
DISL,ioos:station:DISL:CATA:1,2014-03-01T23:00:00Z,30.3085,-88.1395,1.914,11.09,1111122 
DISL,ioos:station:DISL:CATA:1,2014-03-01T23:30:00Z,30.3085,-88.1395,1.917,11.06,1111122 
DISL,ioos:station:DISL:CATA:1,2014-03-02T00:00:00Z,30.3085,-88.1395,1.924,11.15,1111122 
DISL,ioos:station:DISL:CATA:1,2014-03-02T00:30:00Z,30.3085,-88.1395,1.943,11.12,1111122 
DISL,ioos:station:DISL:CATA:1,2014-03-02T01:00:00Z,30.3085,-88.1395,1.971,11.07,1111122 
DISL,ioos:station:DISL:CATA:1,2014-03-02T01:30:00Z,30.3085,-88.1395,1.999,11.05,1111122 
DISL,ioos:station:DISL:CATA:1,2014-03-02T02:00:00Z,30.3085,-88.1395,2.016,10.69,1111122 
DISL,ioos:station:DISL:CATA:1,2014-03-02T02:30:00Z,30.3085,-88.1395,2.025,10.51,1111122 
DISL,ioos:station:DISL:CATA:1,2014-03-02T03:00:00Z,30.3085,-88.1395,2.036,10.72,1111122 
DISL,ioos:station:DISL:CATA:1,2014-03-02T03:30:00Z,30.3085,-88.1395,2.06,10.67,1111122 
DISL,ioos:station:DISL:CATA:1,2014-03-02T04:00:00Z,30.3085,-88.1395,2.068,10.71,1111122 
DISL,ioos:station:DISL:CATA:1,2014-03-02T04:30:00Z,30.3085,-88.1395,2.082,10.64,1111122 
DISL,ioos:station:DISL:CATA:1,2014-03-02T05:00:00Z,30.3085,-88.1395,2.09,10.56,1111122 
DISL,ioos:station:DISL:CATA:1,2014-03-02T05:30:00Z,30.3085,-88.1395,2.105,10.49,1111122 
DISL,ioos:station:DISL:CATA:1,2014-03-02T06:00:00Z,30.3085,-88.1395,2.099,10.44,1111122 
DISL,ioos:station:DISL:CATA:1,2014-03-02T06:30:00Z,30.3085,-88.1395,2.128,10.27,1111122 
DISL,ioos:station:DISL:CATA:1,2014-03-02T07:00:00Z,30.3085,-88.1395,2.124,10.21,1111122 
DISL,ioos:station:DISL:CATA:1,2014-03-02T07:30:00Z,30.3085,-88.1395,2.12,10.16,1111122 
DISL,ioos:station:DISL:CATA:1,2014-03-02T08:00:00Z,30.3085,-88.1395,2.113,10.0,1111122 
DISL,ioos:station:DISL:CATA:1,2014-03-02T08:30:00Z,30.3085,-88.1395,2.116,9.61,1111122 
DISL,ioos:station:DISL:CATA:1,2014-03-02T09:00:00Z,30.3085,-88.1395,2.097,9.98,1111122 
DISL,ioos:station:DISL:CATA:1,2014-03-02T09:30:00Z,30.3085,-88.1395,2.05,10.07,1111122 
DISL,ioos:station:DISL:CATA:1,2014-03-02T10:00:00Z,30.3085,-88.1395,2.001,10.11,1111122 
DISL,ioos:station:DISL:CATA:1,2014-03-02T10:30:00Z,30.3085,-88.1395,1.962,10.5,1111122 
DISL,ioos:station:DISL:CATA:1,2014-03-02T11:00:00Z,30.3085,-88.1395,1.934,10.89,1111122 
DISL,ioos:station:DISL:CATA:1,2014-03-02T11:30:00Z,30.3085,-88.1395,1.907,11.08,1111122 
DISL,ioos:station:DISL:CATA:1,2014-03-02T12:00:00Z,30.3085,-88.1395,1.896,11.32,1111122 
DISL,ioos:station:DISL:CATA:1,2014-03-02T12:30:00Z,30.3085,-88.1395,1.887,10.88,1111122 
DISL,ioos:station:DISL:CATA:1,2014-03-02T13:00:00Z,30.3085,-88.1395,1.893,10.63,1111122 
DISL,ioos:station:DISL:CATA:1,2014-03-02T13:30:00Z,30.3085,-88.1395,1.913,10.51,1111122 
DISL,ioos:station:DISL:CATA:1,2014-03-02T14:00:00Z,30.3085,-88.1395,1.938,10.59,1111122 
DISL,ioos:station:DISL:CATA:1,2014-03-02T14:30:00Z,30.3085,-88.1395,1.962,10.66,1111122 
DISL,ioos:station:DISL:CATA:1,2014-03-02T15:00:00Z,30.3085,-88.1395,1.972,10.52,1111122 
DISL,ioos:station:DISL:CATA:1,2014-03-02T15:30:00Z,30.3085,-88.1395,1.971,10.66,1111122 
DISL,ioos:station:DISL:CATA:1,2014-03-02T16:00:00Z,30.3085,-88.1395,1.96,10.83,1111122 
DISL,ioos:station:DISL:CATA:1,2014-03-02T16:30:00Z,30.3085,-88.1395,1.969,10.93,1111122 
DISL,ioos:station:DISL:CATA:1,2014-03-02T17:00:00Z,30.3085,-88.1395,1.974,10.9,1111122 
DISL,ioos:station:DISL:CATA:1,2014-03-02T17:30:00Z,30.3085,-88.1395,1.977,10.96,1111122 
DISL,ioos:station:DISL:CATA:1,2014-03-02T18:00:00Z,30.3085,-88.1395,1.985,10.84,1111122 
DISL,ioos:station:DISL:CATA:1,2014-03-02T18:30:00Z,30.3085,-88.1395,2.0,10.35,1111122 
DISL,ioos:station:DISL:CATA:1,2014-03-02T19:00:00Z,30.3085,-88.1395,2.013,10.54,1111122 
DISL,ioos:station:DISL:CATA:1,2014-03-02T19:30:00Z,30.3085,-88.1395,2.013,10.9,1111122 
DISL,ioos:station:DISL:CATA:1,2014-03-02T20:00:00Z,30.3085,-88.1395,2.011,10.91,1111122 
DISL,ioos:station:DISL:CATA:1,2014-03-02T20:30:00Z,30.3085,-88.1395,2.013,10.7,1111122 
DISL,ioos:station:DISL:CATA:1,2014-03-02T21:00:00Z,30.3085,-88.1395,1.983,10.65,1111122 
DISL,ioos:station:DISL:CATA:1,2014-03-02T21:30:00Z,30.3085,-88.1395,1.957,10.93,1111122 
DISL,ioos:station:DISL:CATA:1,2014-03-02T22:00:00Z,30.3085,-88.1395,1.949,12.68,1111122 
DISL,ioos:station:DISL:CATA:1,2014-03-02T22:30:00Z,30.3085,-88.1395,1.936,13.78,1111122 
DISL,ioos:station:DISL:CATA:1,2014-03-02T23:00:00Z,30.3085,-88.1395,1.912,13.85,1111122 
DISL,ioos:station:DISL:CATA:1,2014-03-02T23:30:00Z,30.3085,-88.1395,1.894,14.0,1111122 
DISL,ioos:station:DISL:CATA:1,2014-03-03T00:00:00Z,30.3085,-88.1395,1.883,13.5,1111122 
DISL,ioos:station:DISL:CATA:1,2014-03-03T00:30:00Z,30.3085,-88.1395,1.869,13.16,1111122 
DISL,ioos:station:DISL:CATA:1,2014-03-03T01:00:00Z,30.3085,-88.1395,1.889,12.62,1111122 
DISL,ioos:station:DISL:CATA:1,2014-03-03T01:30:00Z,30.3085,-88.1395,1.924,12.27,1111122 
DISL,ioos:station:DISL:CATA:1,2014-03-03T02:00:00Z,30.3085,-88.1395,1.964,11.93,1111122 
DISL,ioos:station:DISL:CATA:1,2014-03-03T02:30:00Z,30.3085,-88.1395,2.012,11.46,1111122 
DISL,ioos:station:DISL:CATA:1,2014-03-03T03:00:00Z,30.3085,-88.1395,2.039,11.29,1111122 
DISL,ioos:station:DISL:CATA:1,2014-03-03T03:30:00Z,30.3085,-88.1395,2.037,11.4,1111122 
DISL,ioos:station:DISL:CATA:1,2014-03-03T04:00:00Z,30.3085,-88.1395,2.05,11.32,1111122 
DISL,ioos:station:DISL:CATA:1,2014-03-03T04:30:00Z,30.3085,-88.1395,2.07,11.17,1111122 
DISL,ioos:station:DISL:CATA:1,2014-03-03T05:00:00Z,30.3085,-88.1395,2.081,11.0,1111122 
DISL,ioos:station:DISL:CATA:1,2014-03-03T05:30:00Z,30.3085,-88.1395,2.082,11.19,1111122 
DISL,ioos:station:DISL:CATA:1,2014-03-03T06:00:00Z,30.3085,-88.1395,2.089,11.33,1111122 
DISL,ioos:station:DISL:CATA:1,2014-03-03T06:30:00Z,30.3085,-88.1395,2.113,11.32,1111122 
DISL,ioos:station:DISL:CATA:1,2014-03-03T07:00:00Z,30.3085,-88.1395,2.139,11.32,1111122 
DISL,ioos:station:DISL:CATA:1,2014-03-03T07:30:00Z,30.3085,-88.1395,2.155,11.28,1111122 
DISL,ioos:station:DISL:CATA:1,2014-03-03T08:00:00Z,30.3085,-88.1395,2.166,11.29,1111122 
DISL,ioos:station:DISL:CATA:1,2014-03-03T08:30:00Z,30.3085,-88.1395,2.162,11.14,1111122 
DISL,ioos:station:DISL:CATA:1,2014-03-03T09:00:00Z,30.3085,-88.1395,2.147,11.15,1111122 
DISL,ioos:station:DISL:CATA:1,2014-03-03T09:30:00Z,30.3085,-88.1395,2.131,11.2,1111122 
DISL,ioos:station:DISL:CATA:1,2014-03-03T10:00:00Z,30.3085,-88.1395,2.108,11.04,1111122 
DISL,ioos:station:DISL:CATA:1,2014-03-03T10:30:00Z,30.3085,-88.1395,2.081,10.4,1111122 
DISL,ioos:station:DISL:CATA:1,2014-03-03T11:00:00Z,30.3085,-88.1395,2.064,10.1,1111122 
DISL,ioos:station:DISL:CATA:1,2014-03-03T11:30:00Z,30.3085,-88.1395,2.056,10.18,1111122 
DISL,ioos:station:DISL:CATA:1,2014-03-03T12:00:00Z,30.3085,-88.1395,2.049,10.19,1111122 
DISL,ioos:station:DISL:CATA:1,2014-03-03T12:30:00Z,30.3085,-88.1395,2.073,10.17,1111122 
DISL,ioos:station:DISL:CATA:1,2014-03-03T13:00:00Z,30.3085,-88.1395,2.103,10.21,1111122 
DISL,ioos:station:DISL:CATA:1,2014-03-03T13:30:00Z,30.3085,-88.1395,2.123,10.17,1111122 
DISL,ioos:station:DISL:CATA:1,2014-03-03T14:00:00Z,30.3085,-88.1395,2.11,10.02,1111122 
DISL,ioos:station:DISL:CATA:1,2014-03-03T14:30:00Z,30.3085,-88.1395,2.123,9.95,1111122 
DISL,ioos:station:DISL:CATA:1,2014-03-03T15:00:00Z,30.3085,-88.1395,2.124,10.14,1111122 
DISL,ioos:station:DISL:CATA:1,2014-03-03T15:30:00Z,30.3085,-88.1395,2.144,10.46,1111122 
DISL,ioos:station:DISL:CATA:1,2014-03-03T16:00:00Z,30.3085,-88.1395,2.18,10.43,1111122 
DISL,ioos:station:DISL:CATA:1,2014-03-03T16:30:00Z,30.3085,-88.1395,2.18,10.19,1111122 
DISL,ioos:station:DISL:CATA:1,2014-03-03T17:00:00Z,30.3085,-88.1395,2.121,10.04,1111122 
DISL,ioos:station:DISL:CATA:1,2014-03-03T17:30:00Z,30.3085,-88.1395,2.041,10.1,1111122 
DISL,ioos:station:DISL:CATA:1,2014-03-03T18:00:00Z,30.3085,-88.1395,2.012,10.7,1111122 
DISL,ioos:station:DISL:CATA:1,2014-03-03T18:30:00Z,30.3085,-88.1395,1.979,10.22,1111122 
DISL,ioos:station:DISL:CATA:1,2014-03-03T19:00:00Z,30.3085,-88.1395,1.91,9.89,1111122 
DISL,ioos:station:DISL:CATA:1,2014-03-03T19:30:00Z,30.3085,-88.1395,1.867,9.96,1111122 
DISL,ioos:station:DISL:CATA:1,2014-03-03T20:00:00Z,30.3085,-88.1395,1.844,9.98,1111122 
DISL,ioos:station:DISL:CATA:1,2014-03-03T20:30:00Z,30.3085,-88.1395,1.852,10.25,1111122 
DISL,ioos:station:DISL:CATA:1,2014-03-03T21:00:00Z,30.3085,-88.1395,1.888,10.48,1111122 
DISL,ioos:station:DISL:CATA:1,2014-03-03T21:30:00Z,30.3085,-88.1395,1.948,10.39,1111122 
DISL,ioos:station:DISL:CATA:1,2014-03-03T22:00:00Z,30.3085,-88.1395,1.957,10.41,1111122 
DISL,ioos:station:DISL:CATA:1,2014-03-03T22:30:00Z,30.3085,-88.1395,1.938,10.18,1111122 
DISL,ioos:station:DISL:CATA:1,2014-03-03T23:00:00Z,30.3085,-88.1395,1.913,10.23,1111122 
DISL,ioos:station:DISL:CATA:1,2014-03-03T23:30:00Z,30.3085,-88.1395,1.865,10.15,1111122 
DISL,ioos:station:DISL:CATA:1,2014-03-04T00:00:00Z,30.3085,-88.1395,1.826,10.19,1111122 
DISL,ioos:station:DISL:CATA:1,2014-03-04T00:30:00Z,30.3085,-88.1395,1.802,9.99,1111122 
DISL,ioos:station:DISL:CATA:1,2014-03-04T01:00:00Z,30.3085,-88.1395,1.767,10.39,1111122 
DISL,ioos:station:DISL:CATA:1,2014-03-04T01:30:00Z,30.3085,-88.1395,1.731,10.36,1111122 
DISL,ioos:station:DISL:CATA:1,2014-03-04T02:00:00Z,30.3085,-88.1395,1.733,10.25,1111122 
DISL,ioos:station:DISL:CATA:1,2014-03-04T02:30:00Z,30.3085,-88.1395,1.718,10.12,1111122 
DISL,ioos:station:DISL:CATA:1,2014-03-04T03:00:00Z,30.3085,-88.1395,1.719,10.05,1111122 
DISL,ioos:station:DISL:CATA:1,2014-03-04T03:30:00Z,30.3085,-88.1395,1.722,10.04,1111122 
DISL,ioos:station:DISL:CATA:1,2014-03-04T04:00:00Z,30.3085,-88.1395,1.747,10.02,1111122 
DISL,ioos:station:DISL:CATA:1,2014-03-04T04:30:00Z,30.3085,-88.1395,1.753,9.91,1111122 
DISL,ioos:station:DISL:CATA:1,2014-03-04T05:00:00Z,30.3085,-88.1395,1.738,9.84,1111122 
DISL,ioos:station:DISL:CATA:1,2014-03-04T05:30:00Z,30.3085,-88.1395,1.751,9.78,1111122 
DISL,ioos:station:DISL:CATA:1,2014-03-04T06:00:00Z,30.3085,-88.1395,1.768,9.76,1111122 
DISL,ioos:station:DISL:CATA:1,2014-03-04T06:30:00Z,30.3085,-88.1395,1.785,9.69,1111122 
DISL,ioos:station:DISL:CATA:1,2014-03-04T07:00:00Z,30.3085,-88.1395,1.806,9.73,1111122 
DISL,ioos:station:DISL:CATA:1,2014-03-04T07:30:00Z,30.3085,-88.1395,1.811,9.91,1111122 
DISL,ioos:station:DISL:CATA:1,2014-03-04T08:00:00Z,30.3085,-88.1395,1.817,9.96,1111122 
DISL,ioos:station:DISL:CATA:1,2014-03-04T08:30:00Z,30.3085,-88.1395,1.816,9.87,1111122 
DISL,ioos:station:DISL:CATA:1,2014-03-04T09:00:00Z,30.3085,-88.1395,1.835,9.94,1111122 
DISL,ioos:station:DISL:CATA:1,2014-03-04T09:30:00Z,30.3085,-88.1395,1.861,9.97,1111122 
DISL,ioos:station:DISL:CATA:1,2014-03-04T10:00:00Z,30.3085,-88.1395,1.873,10.03,1111122 
DISL,ioos:station:DISL:CATA:1,2014-03-04T10:30:00Z,30.3085,-88.1395,1.875,9.97,1111122 
DISL,ioos:station:DISL:CATA:1,2014-03-04T11:00:00Z,30.3085,-88.1395,1.892,9.3,1111122 
DISL,ioos:station:DISL:CATA:1,2014-03-04T11:30:00Z,30.3085,-88.1395,1.902,8.96,1111122 
DISL,ioos:station:DISL:CATA:1,2014-03-04T12:00:00Z,30.3085,-88.1395,1.88,8.86,1111122 
DISL,ioos:station:DISL:CATA:1,2014-03-04T12:30:00Z,30.3085,-88.1395,1.894,8.69,1111122 
DISL,ioos:station:DISL:CATA:1,2014-03-04T13:00:00Z,30.3085,-88.1395,1.893,8.74,1111122 
DISL,ioos:station:DISL:CATA:1,2014-03-04T13:30:00Z,30.3085,-88.1395,1.914,8.86,1111122 
DISL,ioos:station:DISL:CATA:1,2014-03-04T14:00:00Z,30.3085,-88.1395,1.924,9.24,1111122 
DISL,ioos:station:DISL:CATA:1,2014-03-04T14:30:00Z,30.3085,-88.1395,1.95,9.67,1111122 
DISL,ioos:station:DISL:CATA:1,2014-03-04T15:00:00Z,30.3085,-88.1395,1.988,9.58,1111122 
DISL,ioos:station:DISL:CATA:1,2014-03-04T15:30:00Z,30.3085,-88.1395,2.024,9.48,1111122 
DISL,ioos:station:DISL:CATA:1,2014-03-04T16:00:00Z,30.3085,-88.1395,2.018,9.73,1111122 
DISL,ioos:station:DISL:CATA:1,2014-03-04T16:30:00Z,30.3085,-88.1395,2.011,10.21,1111122 
DISL,ioos:station:DISL:CATA:1,2014-03-04T17:00:00Z,30.3085,-88.1395,2.013,10.45,1111122 
DISL,ioos:station:DISL:CATA:1,2014-03-04T17:30:00Z,30.3085,-88.1395,2.038,10.09,1111122 
DISL,ioos:station:DISL:CATA:1,2014-03-04T18:00:00Z,30.3085,-88.1395,2.046,9.95,1111122 
DISL,ioos:station:DISL:CATA:1,2014-03-04T18:30:00Z,30.3085,-88.1395,2.025,10.07,1111122 
DISL,ioos:station:DISL:CATA:1,2014-03-04T19:00:00Z,30.3085,-88.1395,2.025,10.13,1111122 
DISL,ioos:station:DISL:CATA:1,2014-03-04T19:30:00Z,30.3085,-88.1395,2.032,10.18,1111122 
DISL,ioos:station:DISL:CATA:1,2014-03-04T20:00:00Z,30.3085,-88.1395,1.985,10.52,1111122 
DISL,ioos:station:DISL:CATA:1,2014-03-04T20:30:00Z,30.3085,-88.1395,1.953,10.16,1111122 
DISL,ioos:station:DISL:CATA:1,2014-03-04T21:00:00Z,30.3085,-88.1395,1.964,10.12,1111122 
DISL,ioos:station:DISL:CATA:1,2014-03-04T21:30:00Z,30.3085,-88.1395,1.984,10.48,1111122 
DISL,ioos:station:DISL:CATA:1,2014-03-04T22:00:00Z,30.3085,-88.1395,1.96,10.61,1111122 
DISL,ioos:station:DISL:CATA:1,2014-03-04T22:30:00Z,30.3085,-88.1395,1.918,10.56,1111122 
DISL,ioos:station:DISL:CATA:1,2014-03-04T23:00:00Z,30.3085,-88.1395,1.867,10.47,1111122 
DISL,ioos:station:DISL:CATA:1,2014-03-04T23:30:00Z,30.3085,-88.1395,1.82,10.91,1111122 
DISL,ioos:station:DISL:CATA:1,2014-03-05T00:00:00Z,30.3085,-88.1395,1.782,10.52,1111122 
DISL,ioos:station:DISL:CATA:1,2014-03-05T00:30:00Z,30.3085,-88.1395,1.75,10.41,1111122 
DISL,ioos:station:DISL:CATA:1,2014-03-05T01:00:00Z,30.3085,-88.1395,1.726,10.38,1111122 
DISL,ioos:station:DISL:CATA:1,2014-03-05T01:30:00Z,30.3085,-88.1395,1.732,10.35,1111122 
DISL,ioos:station:DISL:CATA:1,2014-03-05T02:00:00Z,30.3085,-88.1395,1.745,10.28,1111122 
DISL,ioos:station:DISL:CATA:1,2014-03-05T02:30:00Z,30.3085,-88.1395,1.768,10.24,1111122 
DISL,ioos:station:DISL:CATA:1,2014-03-05T03:00:00Z,30.3085,-88.1395,1.783,10.16,1111122 
DISL,ioos:station:DISL:CATA:1,2014-03-05T03:30:00Z,30.3085,-88.1395,1.781,10.12,1111122 
DISL,ioos:station:DISL:CATA:1,2014-03-05T04:00:00Z,30.3085,-88.1395,1.755,10.08,1111122 
DISL,ioos:station:DISL:CATA:1,2014-03-05T04:30:00Z,30.3085,-88.1395,1.763,10.08,1111122 
DISL,ioos:station:DISL:CATA:1,2014-03-05T05:00:00Z,30.3085,-88.1395,1.77,10.08,1111122 
DISL,ioos:station:DISL:CATA:1,2014-03-05T05:30:00Z,30.3085,-88.1395,1.77,10.06,1111122 
DISL,ioos:station:DISL:CATA:1,2014-03-05T06:00:00Z,30.3085,-88.1395,1.78,10.08,1111122 
DISL,ioos:station:DISL:CATA:1,2014-03-05T06:30:00Z,30.3085,-88.1395,1.798,10.1,1111122 
DISL,ioos:station:DISL:CATA:1,2014-03-05T07:00:00Z,30.3085,-88.1395,1.786,10.1,1111122 
DISL,ioos:station:DISL:CATA:1,2014-03-05T07:30:00Z,30.3085,-88.1395,1.79,10.09,1111122 
DISL,ioos:station:DISL:CATA:1,2014-03-05T08:00:00Z,30.3085,-88.1395,1.803,10.08,1111122 
DISL,ioos:station:DISL:CATA:1,2014-03-05T08:30:00Z,30.3085,-88.1395,1.818,10.09,1111122 
DISL,ioos:station:DISL:CATA:1,2014-03-05T09:00:00Z,30.3085,-88.1395,1.855,10.08,1111122 
DISL,ioos:station:DISL:CATA:1,2014-03-05T09:30:00Z,30.3085,-88.1395,1.868,10.07,1111122 
DISL,ioos:station:DISL:CATA:1,2014-03-05T10:00:00Z,30.3085,-88.1395,1.884,10.08,1111122 
DISL,ioos:station:DISL:CATA:1,2014-03-05T10:30:00Z,30.3085,-88.1395,1.925,10.03,1111122 
DISL,ioos:station:DISL:CATA:1,2014-03-05T11:00:00Z,30.3085,-88.1395,1.936,10.07,1111122 
DISL,ioos:station:DISL:CATA:1,2014-03-05T11:30:00Z,30.3085,-88.1395,1.941,10.12,1111122 
DISL,ioos:station:DISL:CATA:1,2014-03-05T12:00:00Z,30.3085,-88.1395,1.931,10.26,1111122 
DISL,ioos:station:DISL:CATA:1,2014-03-05T12:30:00Z,30.3085,-88.1395,1.932,10.31,1111122 
DISL,ioos:station:DISL:CATA:1,2014-03-05T13:00:00Z,30.3085,-88.1395,1.906,10.23,1111122 
DISL,ioos:station:DISL:CATA:1,2014-03-05T13:30:00Z,30.3085,-88.1395,1.966,10.18,1111122 
DISL,ioos:station:DISL:CATA:1,2014-03-05T14:00:00Z,30.3085,-88.1395,1.969,10.22,1111122 
DISL,ioos:station:DISL:CATA:1,2014-03-05T14:30:00Z,30.3085,-88.1395,1.993,10.15,1111122 
DISL,ioos:station:DISL:CATA:1,2014-03-05T15:00:00Z,30.3085,-88.1395,1.978,10.14,1111122 
DISL,ioos:station:DISL:CATA:1,2014-03-05T15:30:00Z,30.3085,-88.1395,2.014,10.14,1111122 
DISL,ioos:station:DISL:CATA:1,2014-03-05T16:00:00Z,30.3085,-88.1395,2.04,10.17,1111122 
DISL,ioos:station:DISL:CATA:1,2014-03-05T16:30:00Z,30.3085,-88.1395,2.062,10.19,1111122 
DISL,ioos:station:DISL:CATA:1,2014-03-05T17:00:00Z,30.3085,-88.1395,2.07,10.19,1111122 
DISL,ioos:station:DISL:CATA:1,2014-03-05T17:30:00Z,30.3085,-88.1395,2.109,10.1,1111122 
DISL,ioos:station:DISL:CATA:1,2014-03-05T18:00:00Z,30.3085,-88.1395,2.127,10.18,1111122 
DISL,ioos:station:DISL:CATA:1,2014-03-05T18:30:00Z,30.3085,-88.1395,2.15,10.28,1111122 
DISL,ioos:station:DISL:CATA:1,2014-03-05T19:00:00Z,30.3085,-88.1395,2.168,10.53,1111122 
DISL,ioos:station:DISL:CATA:1,2014-03-05T19:30:00Z,30.3085,-88.1395,2.187,10.57,1111122 
DISL,ioos:station:DISL:CATA:1,2014-03-05T20:00:00Z,30.3085,-88.1395,2.173,10.66,1111122 
DISL,ioos:station:DISL:CATA:1,2014-03-05T20:30:00Z,30.3085,-88.1395,2.164,10.13,1111122 
DISL,ioos:station:DISL:CATA:1,2014-03-05T21:00:00Z,30.3085,-88.1395,2.16,9.23,1111122 
DISL,ioos:station:DISL:CATA:1,2014-03-05T21:30:00Z,30.3085,-88.1395,2.132,8.96,1111122 
DISL,ioos:station:DISL:CATA:1,2014-03-05T22:00:00Z,30.3085,-88.1395,2.132,8.92,1111122 
DISL,ioos:station:DISL:CATA:1,2014-03-05T22:30:00Z,30.3085,-88.1395,2.126,9.1,1111122 
DISL,ioos:station:DISL:CATA:1,2014-03-05T23:00:00Z,30.3085,-88.1395,2.103,8.83,1111122 
DISL,ioos:station:DISL:CATA:1,2014-03-05T23:30:00Z,30.3085,-88.1395,2.073,8.58,1111122 
DISL,ioos:station:DISL:CATA:1,2014-03-06T00:00:00Z,30.3085,-88.1395,2.028,9.64,1111122 
DISL,ioos:station:DISL:CATA:1,2014-03-06T00:30:00Z,30.3085,-88.1395,1.983,10.77,1111122 
DISL,ioos:station:DISL:CATA:1,2014-03-06T01:00:00Z,30.3085,-88.1395,1.933,11.2,1111122 
DISL,ioos:station:DISL:CATA:1,2014-03-06T01:30:00Z,30.3085,-88.1395,1.891,11.02,1111122 
DISL,ioos:station:DISL:CATA:1,2014-03-06T02:00:00Z,30.3085,-88.1395,1.833,10.66,1111122 
DISL,ioos:station:DISL:CATA:1,2014-03-06T02:30:00Z,30.3085,-88.1395,1.827,10.61,1111122 
DISL,ioos:station:DISL:CATA:1,2014-03-06T03:00:00Z,30.3085,-88.1395,1.823,10.57,1111122 
DISL,ioos:station:DISL:CATA:1,2014-03-06T03:30:00Z,30.3085,-88.1395,1.819,10.57,1111122 
DISL,ioos:station:DISL:CATA:1,2014-03-06T04:00:00Z,30.3085,-88.1395,1.836,10.5,1111122 
DISL,ioos:station:DISL:CATA:1,2014-03-06T04:30:00Z,30.3085,-88.1395,1.842,10.45,1111122 
DISL,ioos:station:DISL:CATA:1,2014-03-06T05:00:00Z,30.3085,-88.1395,1.848,10.41,1111122 
DISL,ioos:station:DISL:CATA:1,2014-03-06T05:30:00Z,30.3085,-88.1395,1.859,10.4,1111122 
DISL,ioos:station:DISL:CATA:1,2014-03-06T06:00:00Z,30.3085,-88.1395,1.848,10.44,1111122 
DISL,ioos:station:DISL:CATA:1,2014-03-06T06:30:00Z,30.3085,-88.1395,1.855,10.38,1111122 
DISL,ioos:station:DISL:CATA:1,2014-03-06T07:00:00Z,30.3085,-88.1395,1.855,10.39,1111122 
DISL,ioos:station:DISL:CATA:1,2014-03-06T07:30:00Z,30.3085,-88.1395,1.814,10.36,1111122 
DISL,ioos:station:DISL:CATA:1,2014-03-06T08:00:00Z,30.3085,-88.1395,1.796,10.36,1111122 
DISL,ioos:station:DISL:CATA:1,2014-03-06T08:30:00Z,30.3085,-88.1395,1.756,10.38,1111122 
DISL,ioos:station:DISL:CATA:1,2014-03-06T09:00:00Z,30.3085,-88.1395,1.787,10.39,1111122 
DISL,ioos:station:DISL:CATA:1,2014-03-06T09:30:00Z,30.3085,-88.1395,1.818,10.43,1111122 
DISL,ioos:station:DISL:CATA:1,2014-03-06T10:00:00Z,30.3085,-88.1395,1.886,10.43,1111122 
DISL,ioos:station:DISL:CATA:1,2014-03-06T10:30:00Z,30.3085,-88.1395,1.971,10.45,1111122 
DISL,ioos:station:DISL:CATA:1,2014-03-06T11:00:00Z,30.3085,-88.1395,1.987,10.39,1111122 
DISL,ioos:station:DISL:CATA:1,2014-03-06T11:30:00Z,30.3085,-88.1395,1.951,10.44,1111122 
DISL,ioos:station:DISL:CATA:1,2014-03-06T12:00:00Z,30.3085,-88.1395,2.044,10.47,1111122 
DISL,ioos:station:DISL:CATA:1,2014-03-06T12:30:00Z,30.3085,-88.1395,2.075,10.28,1111122 
DISL,ioos:station:DISL:CATA:1,2014-03-06T13:00:00Z,30.3085,-88.1395,2.072,10.33,1111122 
DISL,ioos:station:DISL:CATA:1,2014-03-06T13:30:00Z,30.3085,-88.1395,2.037,10.38,1111122 
DISL,ioos:station:DISL:CATA:1,2014-03-06T14:00:00Z,30.3085,-88.1395,2.069,10.42,1111122 